• In Belarus
  • List of Countries
  • For 7 days
  • Water Temperature
  • Satellite Maps
  • Weather Map
  • Weather Widgets
  • user-avatar
    Login

    Hourly Weather Onega

    Today, 21 August, Tuesday

    Time Temperature Precipitation Wind Pressure Humidity
    00:00 +13°C° 0 mm 2 mps 748 mmHg 67%
    01:00 +13°C° 0 mm 1 mps 748 mmHg 67%
    02:00 +13°C° 0 mm 1 mps 748 mmHg 68%
    03:00 +12°C° 0 mm 1 mps 747 mmHg 69%
    04:00 +12°C° 0 mm 1 mps 746 mmHg 69%
    05:00 +12°C° 0 mm 2 mps 746 mmHg 68%
    06:00 +13°C° 0 mm 2 mps 745 mmHg 68%
    07:00 +11°C° 1.2 mm 3 mps 744 mmHg 75%
    08:00 +11°C° 1.2 mm 3 mps 743 mmHg 82%
    09:00 +10°C° 0 mm 4 mps 742 mmHg 91%
    10:00 +10°C° 4.5 mm 5 mps 741 mmHg 92%
    11:00 +10°C° 4.5 mm 6 mps 740 mmHg 94%
    12:00 +10°C° 4.5 mm 6 mps 739 mmHg 95%
    13:00 +10°C° 2.4 mm 6 mps 738 mmHg 95%
    14:00 +10°C° 2.4 mm 6 mps 738 mmHg 94%
    15:00 +11°C° 2.4 mm 6 mps 737 mmHg 94%
    16:00 +10°C° 0.6 mm 6 mps 737 mmHg 94%
    17:00 +10°C° 0.6 mm 7 mps 737 mmHg 94%
    18:00 +10°C° 0.6 mm 7 mps 737 mmHg 94%
    19:00 +10°C° 0.7 mm 7 mps 737 mmHg 93%
    20:00 +10°C° 0.7 mm 8 mps 737 mmHg 93%
    21:00 +10°C° 0.7 mm 8 mps 737 mmHg 93%
    22:00 +9°C° 0.8 mm 8 mps 737 mmHg 92%
    23:00 +8°C° 0.8 mm 9 mps 737 mmHg 92%

    Tomorrow, 22 August, Wednesday

    Time Temperature Precipitation Wind Pressure Humidity
    00:00 +8°C° 0.8 mm 9 mps 737 mmHg 91%
    01:00 +8°C° 1.2 mm 9 mps 738 mmHg 91%
    02:00 +8°C° 1.2 mm 9 mps 738 mmHg 91%
    03:00 +8°C° 1.2 mm 9 mps 739 mmHg 91%
    04:00 +7°C° 1.2 mm 9 mps 739 mmHg 91%
    05:00 +7°C° 1.2 mm 9 mps 740 mmHg 91%
    06:00 +7°C° 1.2 mm 9 mps 741 mmHg 91%
    07:00 +7°C° 0.7 mm 9 mps 742 mmHg 90%
    08:00 +7°C° 0.7 mm 9 mps 742 mmHg 90%
    09:00 +7°C° 0.7 mm 9 mps 743 mmHg 89%
    10:00 +7°C° 0.3 mm 9 mps 744 mmHg 88%
    11:00 +7°C° 0.3 mm 8 mps 745 mmHg 87%
    12:00 +9°C° 0.3 mm 8 mps 746 mmHg 85%
    13:00 +9°C° 0.1 mm 8 mps 747 mmHg 80%
    14:00 +10°C° 0.1 mm 8 mps 748 mmHg 74%
    15:00 +10°C° 0.1 mm 7 mps 749 mmHg 68%
    16:00 +11°C° 0 mm 7 mps 749 mmHg 65%
    17:00 +11°C° 0 mm 6 mps 750 mmHg 62%
    18:00 +13°C° 0 mm 6 mps 750 mmHg 60%
    19:00 +12°C° 0 mm 5 mps 750 mmHg 63%
    20:00 +11°C° 0 mm 4 mps 751 mmHg 66%
    21:00 +11°C° 0 mm 4 mps 751 mmHg 69%
    22:00 +10°C° 0 mm 4 mps 751 mmHg 71%
    23:00 +10°C° 0 mm 4 mps 751 mmHg 72%

    Day after tomorrow, 23 August, Thursday

    Time Temperature Precipitation Wind Pressure Humidity
    00:00 +10°C° 0 mm 4 mps 751 mmHg 73%
    01:00 +10°C° 0 mm 4 mps 751 mmHg 73%
    02:00 +8°C° 0 mm 4 mps 752 mmHg 73%
    03:00 +8°C° 0 mm 4 mps 752 mmHg 73%
    04:00 +10°C° 0 mm 4 mps 752 mmHg 73%
    05:00 +10°C° 0 mm 4 mps 752 mmHg 72%
    06:00 +10°C° 0 mm 3 mps 752 mmHg 72%
    07:00 +11°C° 0 mm 3 mps 752 mmHg 69%
    08:00 +12°C° 0 mm 3 mps 752 mmHg 66%
    09:00 +13°C° 0 mm 3 mps 752 mmHg 64%
    10:00 +13°C° 0.2 mm 4 mps 751 mmHg 67%
    11:00 +14°C° 0.2 mm 4 mps 751 mmHg 70%
    12:00 +14°C° 0.2 mm 4 mps 751 mmHg 72%
    13:00 +13°C° 0.6 mm 4 mps 751 mmHg 79%
    14:00 +13°C° 0.6 mm 4 mps 750 mmHg 86%
    15:00 +13°C° 0.6 mm 4 mps 750 mmHg 92%
    16:00 +13°C° 0.7 mm 4 mps 750 mmHg 93%
    17:00 +14°C° 0.7 mm 4 mps 749 mmHg 94%
    18:00 +14°C° 0.7 mm 4 mps 749 mmHg 95%
    19:00 +14°C° 0.3 mm 4 mps 749 mmHg 95%
    20:00 +15°C° 0.3 mm 5 mps 749 mmHg 94%
    21:00 +15°C° 0.3 mm 5 mps 749 mmHg 94%
    22:00 +15°C° 0 mm 5 mps 749 mmHg 94%
    23:00 +15°C° 0 mm 5 mps 749 mmHg 95%

    24 August, Friday

    Time Temperature Precipitation Wind Pressure Humidity
    00:00 +15°C° 0 mm 4 mps 749 mmHg 95%
    01:00 +14°C° 0 mm 4 mps 750 mmHg 95%
    02:00 +14°C° 0 mm 4 mps 750 mmHg 96%
    03:00 +14°C° 0 mm 4 mps 751 mmHg 96%
    04:00 +14°C° 0 mm 3 mps 751 mmHg 96%
    05:00 +13°C° 0 mm 3 mps 752 mmHg 96%
    06:00 +14°C° 0 mm 2 mps 752 mmHg 96%
    07:00 +15°C° 0 mm 2 mps 752 mmHg 93%
    08:00 +16°C° 0 mm 3 mps 753 mmHg 89%
    09:00 +16°C° 0 mm 3 mps 753 mmHg 86%
    10:00 +18°C° 0 mm 2 mps 753 mmHg 80%
    11:00 +19°C° 0 mm 2 mps 753 mmHg 75%
    12:00 +20°C° 0 mm 2 mps 753 mmHg 69%
    13:00 +20°C° 0.1 mm 2 mps 754 mmHg 71%
    14:00 +20°C° 0.1 mm 2 mps 754 mmHg 72%
    15:00 +21°C° 0.1 mm 2 mps 754 mmHg 73%
    16:00 +21°C° 0.1 mm 2 mps 754 mmHg 75%
    17:00 +21°C° 0.1 mm 2 mps 753 mmHg 76%
    18:00 +21°C° 0.1 mm 2 mps 753 mmHg 77%
    19:00 +20°C° 0.1 mm 2 mps 753 mmHg 82%
    20:00 +18°C° 0.1 mm 3 mps 753 mmHg 86%
    21:00 +17°C° 0.1 mm 3 mps 753 mmHg 90%
    22:00 +16°C° 0 mm 3 mps 753 mmHg 90%
    23:00 +16°C° 0 mm 3 mps 753 mmHg 90%

    25 August, Saturday

    Time Temperature Precipitation Wind Pressure Humidity
    00:00 +14°C° 0 mm 3 mps 753 mmHg 90%
    01:00 +14°C° 0 mm 3 mps 753 mmHg 91%
    02:00 +14°C° 0 mm 3 mps 753 mmHg 91%
    03:00 +14°C° 0 mm 3 mps 753 mmHg 91%
    04:00 +14°C° 0 mm 3 mps 753 mmHg 91%
    05:00 +14°C° 0 mm 4 mps 753 mmHg 90%
    06:00 +14°C° 0 mm 4 mps 753 mmHg 89%
    07:00 +15°C° 0 mm 4 mps 753 mmHg 83%
    08:00 +18°C° 0 mm 4 mps 753 mmHg 76%
    09:00 +19°C° 0 mm 4 mps 753 mmHg 70%
    10:00 +21°C° 0 mm 5 mps 753 mmHg 64%
    11:00 +22°C° 0 mm 5 mps 752 mmHg 58%
    12:00 +25°C° 0 mm 5 mps 752 mmHg 51%
    13:00 +25°C° 0 mm 5 mps 752 mmHg 49%
    14:00 +25°C° 0 mm 5 mps 752 mmHg 48%
    15:00 +26°C° 0 mm 5 mps 752 mmHg 46%
    16:00 +25°C° 0 mm 5 mps 751 mmHg 49%
    17:00 +23°C° 0 mm 5 mps 751 mmHg 53%
    18:00 +23°C° 0 mm 4 mps 751 mmHg 56%
    19:00 +22°C° 0 mm 4 mps 751 mmHg 59%
    20:00 +20°C° 0 mm 4 mps 751 mmHg 63%
    21:00 +19°C° 0 mm 5 mps 751 mmHg 66%
    22:00 +19°C° 0 mm 5 mps 751 mmHg 67%
    23:00 +19°C° 0 mm 5 mps 751 mmHg 67%

    26 August, Sunday

    Time Temperature Precipitation Wind Pressure Humidity
    00:00 +19°C° 0 mm 5 mps 750 mmHg 68%
    01:00 +19°C° 0 mm 5 mps 751 mmHg 69%
    02:00 +17°C° 0 mm 5 mps 751 mmHg 70%
    03:00 +17°C° 0 mm 5 mps 751 mmHg 71%
    04:00 +18°C° 0.1 mm 4 mps 751 mmHg 74%
    05:00 +17°C° 0.1 mm 4 mps 752 mmHg 77%
    06:00 +17°C° 0.1 mm 4 mps 752 mmHg 80%
    07:00 +17°C° 0.2 mm 4 mps 752 mmHg 82%
    08:00 +17°C° 0.2 mm 3 mps 753 mmHg 85%
    09:00 +17°C° 0.2 mm 2 mps 754 mmHg 88%
    10:00 +17°C° 0.1 mm 2 mps 754 mmHg 85%
    11:00 +18°C° 0.1 mm 2 mps 755 mmHg 81%
    12:00 +18°C° 0.1 mm 2 mps 755 mmHg 77%
    13:00 +20°C° 0 mm 2 mps 756 mmHg 69%
    14:00 +21°C° 0 mm 2 mps 756 mmHg 62%
    15:00 +23°C° 0 mm 2 mps 756 mmHg 55%
    16:00 +22°C° 0 mm 1 mps 756 mmHg 59%
    17:00 +21°C° 0 mm 1 mps 757 mmHg 63%
    18:00 +21°C° 0 mm 1 mps 757 mmHg 67%
    19:00 +20°C° 0 mm 1 mps 757 mmHg 71%
    20:00 +19°C° 0 mm 1 mps 757 mmHg 75%
    21:00 +18°C° 0 mm 1 mps 757 mmHg 79%
    22:00 +16°C° 0 mm 1 mps 757 mmHg 80%
    23:00 +16°C° 0 mm 1 mps 757 mmHg 82%
    Show more